Simultaneous Nadir Overpasses (SNOs) Predictions

Prediction of SNOs between GOES-17 and METOP-C Satellite Orbit:

Table of predicted SNOs for the next 14.0 days since TLE Epoch: 12/31/2023
Index Date Time (GOES-17) GOES-17 Lat,Lon METOP-C Lat,Lon Distance(km) Time Diff (sec)
1 01/01/2024 04:41:06 -0.02,-104.66 -0.65,-107.45 317.63 80
2 01/02/2024 04:17:46 -0.03,-104.66 0.44,-102.45 251.30 80
3 01/03/2024 16:36:40 0.03,-104.68 0.52,-107.03 266.92 80
4 01/04/2024 16:18:40 0.02,-104.68 -0.57,-102.03 302.34 80
5 01/06/2024 04:37:40 -0.02,-104.67 -0.46,-106.62 222.84 80
6 01/07/2024 04:14:22 -0.00,-104.66 0.70,-101.64 345.36 80
7 01/08/2024 16:33:13 -0.01,-104.67 0.35,-106.19 173.83 80
8 01/09/2024 16:15:15 -0.01,-104.67 -0.81,-101.21 395.09 80
9 01/11/2024 04:34:15 0.01,-104.65 -0.22,-105.80 130.57 80
10 01/12/2024 04:10:56 0.00,-104.64 0.88,-100.80 437.95 80
11 01/13/2024 16:29:47 0.01,-104.64 0.15,-105.36 81.27 80
